Year,Month,Day,Hour,Minute,Value (Times are PST for temperature in C)
2016,03,29,00,00,2.80
2016,03,29,00,01,2.80
2016,03,29,00,02,2.80
2016,03,29,00,03,2.80
2016,03,29,00,04,2.80
2016,03,29,00,05,2.80
2016,03,29,00,06,2.80
2016,03,29,00,07,2.80
2016,03,29,00,08,2.70
2016,03,29,00,09,2.70
2016,03,29,00,10,2.70
2016,03,29,00,11,2.70
2016,03,29,00,12,2.70
2016,03,29,00,13,2.70
2016,03,29,00,14,2.70
2016,03,29,00,15,2.70
2016,03,29,00,16,2.70
2016,03,29,00,17,2.70
2016,03,29,00,18,2.70
2016,03,29,00,19,2.60
2016,03,29,00,20,2.70
2016,03,29,00,21,2.70
2016,03,29,00,22,2.60
2016,03,29,00,23,2.60
2016,03,29,00,24,2.60
2016,03,29,00,25,2.60
2016,03,29,00,26,2.60
2016,03,29,00,27,2.60
2016,03,29,00,28,2.60
2016,03,29,00,29,2.50
2016,03,29,00,30,2.50
2016,03,29,00,31,2.50
2016,03,29,00,32,2.50
2016,03,29,00,33,2.50
2016,03,29,00,34,2.50
2016,03,29,00,35,2.50
2016,03,29,00,36,2.40
2016,03,29,00,37,2.40
2016,03,29,00,38,2.40
2016,03,29,00,39,2.40
2016,03,29,00,40,2.40
2016,03,29,00,41,2.40
2016,03,29,00,42,2.30
2016,03,29,00,43,2.30
2016,03,29,00,44,2.30
2016,03,29,00,45,2.30
2016,03,29,00,46,2.30
2016,03,29,00,47,2.30
2016,03,29,00,48,2.30
2016,03,29,00,49,2.30
2016,03,29,00,50,2.30
2016,03,29,00,51,2.20
2016,03,29,00,52,2.20
2016,03,29,00,53,2.20
2016,03,29,00,54,2.20
2016,03,29,00,55,2.20
2016,03,29,00,56,2.10
2016,03,29,00,57,2.10
2016,03,29,00,58,2.10
2016,03,29,00,59,2.10
2016,03,29,01,00,2.10
2016,03,29,01,01,2.10
2016,03,29,01,02,2.10
2016,03,29,01,03,2.10
2016,03,29,01,04,2.10
2016,03,29,01,05,2.10
2016,03,29,01,06,2.00
2016,03,29,01,07,2.00
2016,03,29,01,08,2.00
2016,03,29,01,09,2.00
2016,03,29,01,10,2.00
2016,03,29,01,11,2.00
2016,03,29,01,12,1.90
2016,03,29,01,13,1.90
2016,03,29,01,14,1.90
2016,03,29,01,15,1.90
2016,03,29,01,16,1.90
2016,03,29,01,17,1.90
2016,03,29,01,18,1.80
2016,03,29,01,19,1.80
2016,03,29,01,20,1.80
2016,03,29,01,21,1.80
2016,03,29,01,22,1.80
2016,03,29,01,23,1.80
2016,03,29,01,24,1.80
2016,03,29,01,25,1.80
2016,03,29,01,26,1.80
2016,03,29,01,27,1.80
2016,03,29,01,28,1.70
2016,03,29,01,29,1.70
2016,03,29,01,30,1.70
2016,03,29,01,31,1.70
2016,03,29,01,32,1.70
2016,03,29,01,33,1.70
2016,03,29,01,34,1.70
2016,03,29,01,35,1.60
2016,03,29,01,36,1.60
2016,03,29,01,37,1.60
2016,03,29,01,38,1.60
2016,03,29,01,39,1.60
2016,03,29,01,40,1.60
2016,03,29,01,41,1.60
2016,03,29,01,42,1.60
2016,03,29,01,43,1.60
2016,03,29,01,44,1.60
2016,03,29,01,45,1.50
2016,03,29,01,46,1.50
2016,03,29,01,47,1.50
2016,03,29,01,48,1.50
2016,03,29,01,49,1.50
2016,03,29,01,50,1.50
2016,03,29,01,51,1.50
2016,03,29,01,52,1.40
2016,03,29,01,53,1.40
2016,03,29,01,54,1.40
2016,03,29,01,55,1.40
2016,03,29,01,56,1.40
2016,03,29,01,57,1.40
2016,03,29,01,58,1.40
2016,03,29,01,59,1.40
2016,03,29,02,00,1.40
2016,03,29,02,01,1.40
2016,03,29,02,02,1.40
2016,03,29,02,03,1.40
2016,03,29,02,04,1.40
2016,03,29,02,05,1.40
2016,03,29,02,06,1.40
2016,03,29,02,07,1.40
2016,03,29,02,08,1.40
2016,03,29,02,09,1.30
2016,03,29,02,10,1.30
2016,03,29,02,11,1.30
2016,03,29,02,12,1.30
2016,03,29,02,13,1.30
2016,03,29,02,14,1.30
2016,03,29,02,15,1.30
2016,03,29,02,16,1.30
2016,03,29,02,17,1.30
2016,03,29,02,18,1.30
2016,03,29,02,19,1.30
2016,03,29,02,20,1.30
2016,03,29,02,21,1.20
2016,03,29,02,22,1.20
2016,03,29,02,23,1.20
2016,03,29,02,24,1.20
2016,03,29,02,25,1.20
2016,03,29,02,26,1.20
2016,03,29,02,27,1.20
2016,03,29,02,28,1.20
2016,03,29,02,29,1.20
2016,03,29,02,30,1.20
2016,03,29,02,31,1.20
2016,03,29,02,32,1.20
2016,03,29,02,33,1.20
2016,03,29,02,34,1.10
2016,03,29,02,35,1.10
2016,03,29,02,36,1.10
2016,03,29,02,37,1.10
2016,03,29,02,38,1.10
2016,03,29,02,39,1.10
2016,03,29,02,40,1.10
2016,03,29,02,41,1.10
2016,03,29,02,42,1.10
2016,03,29,02,43,1.10
2016,03,29,02,44,1.10
2016,03,29,02,45,1.10
2016,03,29,02,46,1.10
2016,03,29,02,47,1.00
2016,03,29,02,48,1.00
2016,03,29,02,49,1.00
2016,03,29,02,50,1.00
2016,03,29,02,51,1.00
2016,03,29,02,52,1.00
2016,03,29,02,53,1.00
2016,03,29,02,54,0.90
2016,03,29,02,55,0.90
2016,03,29,02,56,0.90
2016,03,29,02,57,0.90
2016,03,29,02,58,0.90
2016,03,29,02,59,0.90
2016,03,29,03,00,0.90
2016,03,29,03,01,0.90
2016,03,29,03,02,0.90
2016,03,29,03,03,0.90
2016,03,29,03,04,0.90
2016,03,29,03,05,0.90
2016,03,29,03,06,0.80
2016,03,29,03,07,0.80
2016,03,29,03,08,0.80
2016,03,29,03,09,0.80
2016,03,29,03,10,0.80
2016,03,29,03,11,0.80
2016,03,29,03,12,0.80
2016,03,29,03,13,0.80
2016,03,29,03,14,0.80
2016,03,29,03,15,0.80
2016,03,29,03,16,0.80
2016,03,29,03,17,0.80
2016,03,29,03,18,0.70
2016,03,29,03,19,0.70
2016,03,29,03,20,0.70
2016,03,29,03,21,0.70
2016,03,29,03,22,0.70
2016,03,29,03,23,0.70
2016,03,29,03,24,0.70
2016,03,29,03,25,0.70
2016,03,29,03,26,0.70
2016,03,29,03,27,0.60
2016,03,29,03,28,0.60
2016,03,29,03,29,0.60
2016,03,29,03,30,0.60
2016,03,29,03,31,0.60
2016,03,29,03,32,0.60
2016,03,29,03,33,0.60
2016,03,29,03,34,0.60
2016,03,29,03,35,0.50
2016,03,29,03,36,0.50
2016,03,29,03,37,0.50
2016,03,29,03,38,0.50
2016,03,29,03,39,0.50
2016,03,29,03,40,0.50
2016,03,29,03,41,0.50
2016,03,29,03,42,0.50
2016,03,29,03,43,0.50
2016,03,29,03,44,0.50
2016,03,29,03,45,0.50
2016,03,29,03,46,0.50
2016,03,29,03,47,0.50
2016,03,29,03,48,0.50
2016,03,29,03,49,0.40
2016,03,29,03,50,0.40
2016,03,29,03,51,0.40
2016,03,29,03,52,0.40
2016,03,29,03,53,0.40
2016,03,29,03,54,0.50
2016,03,29,03,55,0.50
2016,03,29,03,56,0.50
2016,03,29,03,57,0.50
2016,03,29,03,58,0.50
2016,03,29,03,59,0.50
2016,03,29,04,00,0.40
2016,03,29,04,01,0.40
2016,03,29,04,02,0.40
2016,03,29,04,03,0.40
2016,03,29,04,04,0.40
2016,03,29,04,05,0.40
2016,03,29,04,06,0.40
2016,03,29,04,07,0.40
2016,03,29,04,08,0.40
2016,03,29,04,09,0.40
2016,03,29,04,10,0.40
2016,03,29,04,11,0.30
2016,03,29,04,12,0.30
2016,03,29,04,13,0.30
2016,03,29,04,14,0.30
2016,03,29,04,15,0.30
2016,03,29,04,16,0.30
2016,03,29,04,17,0.30
2016,03,29,04,18,0.30
2016,03,29,04,19,0.30
2016,03,29,04,20,0.30
2016,03,29,04,21,0.20
2016,03,29,04,22,0.20
2016,03,29,04,23,0.20
2016,03,29,04,24,0.20
2016,03,29,04,25,0.20
2016,03,29,04,26,0.20
2016,03,29,04,27,0.20
2016,03,29,04,28,0.20
2016,03,29,04,29,0.10
2016,03,29,04,30,0.10
2016,03,29,04,31,0.10
2016,03,29,04,32,0.10
2016,03,29,04,33,0.10
2016,03,29,04,34,0.10
2016,03,29,04,35,0.10
2016,03,29,04,36,0.10
2016,03,29,04,37,0.10
2016,03,29,04,38,0.10
2016,03,29,04,39,0.10
2016,03,29,04,40,0.00
2016,03,29,04,41,0.00
2016,03,29,04,42,0.00
2016,03,29,04,43,0.00
2016,03,29,04,44,0.00
2016,03,29,04,45,0.00
2016,03,29,04,46,0.00
2016,03,29,04,47,0.00
2016,03,29,04,48,0.00
2016,03,29,04,49,0.00
2016,03,29,04,50,0.00
2016,03,29,04,51,0.00
2016,03,29,04,52,0.00
2016,03,29,04,53,0.00
2016,03,29,04,54,0.00
2016,03,29,04,55,0.00
2016,03,29,04,56,0.00
2016,03,29,04,57,0.00
2016,03,29,04,58,0.00
2016,03,29,04,59,0.00
2016,03,29,05,00,-0.10
2016,03,29,05,01,-0.10
2016,03,29,05,02,-0.10
2016,03,29,05,03,-0.10
2016,03,29,05,04,-0.10
2016,03,29,05,05,-0.10
2016,03,29,05,06,0.00
2016,03,29,05,07,0.00
2016,03,29,05,08,0.00
2016,03,29,05,09,0.00
2016,03,29,05,10,0.00
2016,03,29,05,11,-0.10
2016,03,29,05,12,-0.10
2016,03,29,05,13,-0.10
2016,03,29,05,14,-0.10
2016,03,29,05,15,-0.10
2016,03,29,05,16,-0.10
2016,03,29,05,17,-0.10
2016,03,29,05,18,-0.10
2016,03,29,05,19,-0.10
2016,03,29,05,20,-0.10
2016,03,29,05,21,-0.10
2016,03,29,05,22,-0.10
2016,03,29,05,23,-0.10
2016,03,29,05,24,-0.10
2016,03,29,05,25,-0.10
2016,03,29,05,26,-0.10
2016,03,29,05,27,-0.10
2016,03,29,05,28,-0.10
2016,03,29,05,29,-0.10
2016,03,29,05,30,-0.10
2016,03,29,05,31,-0.10
2016,03,29,05,32,-0.10
2016,03,29,05,33,-0.10
2016,03,29,05,34,-0.10
2016,03,29,05,35,-0.10
2016,03,29,05,36,-0.10
2016,03,29,05,37,-0.10
2016,03,29,05,38,-0.10
2016,03,29,05,39,-0.10
2016,03,29,05,40,-0.10
2016,03,29,05,41,-0.10
2016,03,29,05,42,-0.10
2016,03,29,05,43,-0.10
2016,03,29,05,44,-0.10
2016,03,29,05,45,-0.10
2016,03,29,05,46,-0.20
2016,03,29,05,47,-0.20
2016,03,29,05,48,-0.20
2016,03,29,05,49,-0.20
2016,03,29,05,50,-0.20
2016,03,29,05,51,-0.20
2016,03,29,05,52,-0.20
2016,03,29,05,53,-0.20
2016,03,29,05,54,-0.20
2016,03,29,05,55,-0.20
2016,03,29,05,56,-0.20
2016,03,29,05,57,-0.20
2016,03,29,05,58,-0.20
2016,03,29,05,59,-0.20
2016,03,29,06,00,-0.20
2016,03,29,06,01,-0.20
2016,03,29,06,02,-0.20
2016,03,29,06,03,-0.20
2016,03,29,06,04,-0.20
2016,03,29,06,05,-0.20
2016,03,29,06,06,-0.20
2016,03,29,06,07,-0.20
2016,03,29,06,08,-0.20
2016,03,29,06,09,-0.20
2016,03,29,06,10,-0.20
2016,03,29,06,11,-0.20
2016,03,29,06,12,-0.20
2016,03,29,06,13,-0.20
2016,03,29,06,14,-0.20
2016,03,29,06,15,-0.20
2016,03,29,06,16,-0.20
2016,03,29,06,17,-0.20
2016,03,29,06,18,-0.20
2016,03,29,06,19,-0.20
2016,03,29,06,20,-0.20
2016,03,29,06,21,-0.20
2016,03,29,06,22,-0.20
2016,03,29,06,23,-0.20
2016,03,29,06,24,-0.20
2016,03,29,06,25,-0.20
2016,03,29,06,26,-0.10
2016,03,29,06,27,-0.10
2016,03,29,06,28,-0.10
2016,03,29,06,29,-0.10
2016,03,29,06,30,-0.10
2016,03,29,06,31,-0.10
2016,03,29,06,32,-0.10
2016,03,29,06,33,-0.10
2016,03,29,06,34,-0.10
2016,03,29,06,35,-0.10
2016,03,29,06,36,-0.10
2016,03,29,06,37,-0.10
2016,03,29,06,38,-0.10
2016,03,29,06,39,-0.10
2016,03,29,06,40,-0.20
2016,03,29,06,41,-0.20
2016,03,29,06,42,-0.20
2016,03,29,06,43,-0.20
2016,03,29,06,44,-0.20
2016,03,29,06,45,-0.20
2016,03,29,06,46,-0.20
2016,03,29,06,47,-0.20
2016,03,29,06,48,-0.20
2016,03,29,06,49,-0.20
2016,03,29,06,50,-0.20
2016,03,29,06,51,-0.20
2016,03,29,06,52,-0.20
2016,03,29,06,53,-0.20
2016,03,29,06,54,-0.20
2016,03,29,06,55,-0.20
2016,03,29,06,56,-0.20
2016,03,29,06,57,-0.20
2016,03,29,06,58,-0.20
2016,03,29,06,59,-0.20
2016,03,29,07,00,-0.20
2016,03,29,07,01,-0.20
2016,03,29,07,02,-0.20
2016,03,29,07,03,-0.20
2016,03,29,07,04,-0.20
2016,03,29,07,05,-0.20
2016,03,29,07,06,-0.20
2016,03,29,07,07,-0.20
2016,03,29,07,08,-0.20
2016,03,29,07,09,-0.20
2016,03,29,07,10,-0.20
2016,03,29,07,11,-0.20
2016,03,29,07,12,-0.20
2016,03,29,07,13,-0.20
2016,03,29,07,14,-0.20
2016,03,29,07,15,-0.10
2016,03,29,07,16,-0.10
2016,03,29,07,17,-0.10
2016,03,29,07,18,-0.10
2016,03,29,07,19,-0.10
2016,03,29,07,20,-0.10
2016,03,29,07,21,-0.10
2016,03,29,07,22,-0.10
2016,03,29,07,23,-0.10
2016,03,29,07,24,-0.10
2016,03,29,07,25,-0.10
2016,03,29,07,26,-0.10
2016,03,29,07,27,-0.10
2016,03,29,07,28,-0.10
2016,03,29,07,29,-0.10
2016,03,29,07,30,-0.10
2016,03,29,07,31,-0.10
2016,03,29,07,32,-0.10
2016,03,29,07,33,-0.10
2016,03,29,07,34,-0.10
2016,03,29,07,35,-0.10
2016,03,29,07,36,-0.10
2016,03,29,07,37,-0.10
2016,03,29,07,38,-0.10
2016,03,29,07,39,-0.10
2016,03,29,07,40,0.00
2016,03,29,07,41,0.00
2016,03,29,07,42,0.00
2016,03,29,07,43,0.00
2016,03,29,07,44,0.00
2016,03,29,07,45,0.00
2016,03,29,07,46,0.00
2016,03,29,07,47,0.00
2016,03,29,07,48,0.00
2016,03,29,07,49,0.00
2016,03,29,07,50,0.00
2016,03,29,07,51,0.00
2016,03,29,07,52,0.00
2016,03,29,07,53,0.10
2016,03,29,07,54,0.10
2016,03,29,07,55,0.10
2016,03,29,07,56,0.10
2016,03,29,07,57,0.10
2016,03,29,07,58,0.10
2016,03,29,07,59,0.10
2016,03,29,08,00,0.10
2016,03,29,08,01,0.10
2016,03,29,08,02,0.10
2016,03,29,08,03,0.10
2016,03,29,08,04,0.10
2016,03,29,08,05,0.10
2016,03,29,08,06,0.20
2016,03,29,08,07,0.20
2016,03,29,08,08,0.20
2016,03,29,08,09,0.20
2016,03,29,08,10,0.20
2016,03,29,08,11,0.20
2016,03,29,08,12,0.20
2016,03,29,08,13,0.20
2016,03,29,08,14,0.20
2016,03,29,08,15,0.30
2016,03,29,08,16,0.30
2016,03,29,08,17,0.30
2016,03,29,08,18,0.30
2016,03,29,08,19,0.30
2016,03,29,08,20,0.30
2016,03,29,08,21,0.30
2016,03,29,08,22,0.30
2016,03,29,08,23,0.30
2016,03,29,08,24,0.30
2016,03,29,08,25,0.30
2016,03,29,08,26,0.40
2016,03,29,08,27,0.40
2016,03,29,08,28,0.40
2016,03,29,08,29,0.40
2016,03,29,08,30,0.40
2016,03,29,08,31,0.50
2016,03,29,08,32,0.50
2016,03,29,08,33,0.60
2016,03,29,08,34,0.60
2016,03,29,08,35,0.70
2016,03,29,08,36,0.70
2016,03,29,08,37,0.70
2016,03,29,08,38,0.80
2016,03,29,08,39,0.90
2016,03,29,08,40,0.90
2016,03,29,08,41,1.00
2016,03,29,08,42,1.10
2016,03,29,08,43,1.10
2016,03,29,08,44,1.20
2016,03,29,08,45,1.20
2016,03,29,08,46,1.30
2016,03,29,08,47,1.40
2016,03,29,08,48,1.50
2016,03,29,08,49,1.60
2016,03,29,08,50,1.70
2016,03,29,08,51,1.70
2016,03,29,08,52,1.80
2016,03,29,08,53,1.90
2016,03,29,08,54,2.00
2016,03,29,08,55,2.10
2016,03,29,08,56,2.20
2016,03,29,08,57,2.30
2016,03,29,08,58,2.40
2016,03,29,08,59,2.40
2016,03,29,09,00,2.50
2016,03,29,09,01,2.60
2016,03,29,09,02,2.60
2016,03,29,09,03,2.70
2016,03,29,09,04,2.70
2016,03,29,09,05,2.80
2016,03,29,09,06,2.80
2016,03,29,09,07,2.80
2016,03,29,09,08,2.90
2016,03,29,09,09,2.90
2016,03,29,09,10,3.00
2016,03,29,09,11,3.10
2016,03,29,09,12,3.10
2016,03,29,09,13,3.20
2016,03,29,09,14,3.20
2016,03,29,09,15,3.20
2016,03,29,09,16,3.20
2016,03,29,09,17,3.20
2016,03,29,09,18,3.20
2016,03,29,09,19,3.10
2016,03,29,09,20,3.20
2016,03,29,09,21,3.20
2016,03,29,09,22,3.20
2016,03,29,09,23,3.20
2016,03,29,09,24,3.20
2016,03,29,09,25,3.30
2016,03,29,09,26,3.30
2016,03,29,09,27,3.40
2016,03,29,09,28,3.50
2016,03,29,09,29,3.60
2016,03,29,09,30,3.60
2016,03,29,09,31,3.70
2016,03,29,09,32,3.70
2016,03,29,09,33,3.70
2016,03,29,09,34,3.80
2016,03,29,09,35,3.80
2016,03,29,09,36,3.80
2016,03,29,09,37,3.90
2016,03,29,09,38,3.90
2016,03,29,09,39,3.90
2016,03,29,09,40,4.00
2016,03,29,09,41,4.00
2016,03,29,09,42,4.00
2016,03,29,09,43,4.00
2016,03,29,09,44,4.10
2016,03,29,09,45,4.10
2016,03,29,09,46,4.10
2016,03,29,09,47,4.10
2016,03,29,09,48,4.10
2016,03,29,09,49,4.20
2016,03,29,09,50,4.20
2016,03,29,09,51,4.20
2016,03,29,09,52,4.30
2016,03,29,09,53,4.40
2016,03,29,09,54,4.50
2016,03,29,09,55,4.50
2016,03,29,09,56,4.60
2016,03,29,09,57,4.70
2016,03,29,09,58,4.70
2016,03,29,09,59,4.80
2016,03,29,10,00,4.80
2016,03,29,10,01,4.80
2016,03,29,10,02,4.90
2016,03,29,10,03,5.00
2016,03,29,10,04,5.00
2016,03,29,10,05,5.10
2016,03,29,10,06,5.20
2016,03,29,10,07,5.30
2016,03,29,10,08,5.40
2016,03,29,10,09,5.50
2016,03,29,10,10,5.60
2016,03,29,10,11,5.80
2016,03,29,10,12,5.90
2016,03,29,10,13,6.00
2016,03,29,10,14,6.10
2016,03,29,10,15,6.20
2016,03,29,10,16,6.30
2016,03,29,10,17,6.30
2016,03,29,10,18,6.40
2016,03,29,10,19,6.50
2016,03,29,10,20,6.50
2016,03,29,10,21,6.60
2016,03,29,10,22,6.70
2016,03,29,10,23,6.80
2016,03,29,10,24,6.80
2016,03,29,10,25,6.80
2016,03,29,10,26,6.90
2016,03,29,10,27,6.90
2016,03,29,10,28,6.90
2016,03,29,10,29,7.00
2016,03,29,10,30,7.10
2016,03,29,10,31,7.20
2016,03,29,10,32,7.30
2016,03,29,10,33,7.40
2016,03,29,10,34,7.50
2016,03,29,10,35,7.60
2016,03,29,10,36,7.70
2016,03,29,10,37,7.80
2016,03,29,10,38,7.80
2016,03,29,10,39,7.80
2016,03,29,10,40,7.70
2016,03,29,10,41,7.70
2016,03,29,10,42,7.70
2016,03,29,10,43,7.70
2016,03,29,10,44,7.70
2016,03,29,10,45,7.80
2016,03,29,10,46,7.80
2016,03,29,10,47,7.90
2016,03,29,10,48,7.90
2016,03,29,10,49,7.90
2016,03,29,10,50,8.00
2016,03,29,10,51,8.00
2016,03,29,10,52,8.10
2016,03,29,10,53,8.20
2016,03,29,10,54,8.20
2016,03,29,10,55,8.30
2016,03,29,10,56,8.40
2016,03,29,10,57,8.50
2016,03,29,10,58,8.50
2016,03,29,10,59,8.60
2016,03,29,11,00,8.70
2016,03,29,11,01,8.70
2016,03,29,11,02,8.70
2016,03,29,11,03,8.80
2016,03,29,11,04,8.80
2016,03,29,11,05,8.90
2016,03,29,11,06,9.00
2016,03,29,11,07,9.00
2016,03,29,11,08,9.10
2016,03,29,11,09,9.20
2016,03,29,11,10,9.30
2016,03,29,11,11,9.30
2016,03,29,11,12,9.30
2016,03,29,11,13,9.40
2016,03,29,11,14,9.50
2016,03,29,11,15,9.60
2016,03,29,11,16,9.60
2016,03,29,11,17,9.60
2016,03,29,11,18,9.60
2016,03,29,11,19,9.60
2016,03,29,11,20,9.60
2016,03,29,11,21,9.60
2016,03,29,11,22,9.60
2016,03,29,11,23,9.60
2016,03,29,11,24,9.70
2016,03,29,11,25,9.70
2016,03,29,11,26,9.70
2016,03,29,11,27,9.70
2016,03,29,11,28,9.80
2016,03,29,11,29,10.00
2016,03,29,11,30,10.10
2016,03,29,11,31,10.20
2016,03,29,11,32,10.40
2016,03,29,11,33,10.50
2016,03,29,11,34,10.60
2016,03,29,11,35,10.70
2016,03,29,11,36,10.80
2016,03,29,11,37,10.90
2016,03,29,11,38,11.00
2016,03,29,11,39,11.10
2016,03,29,11,40,11.20
2016,03,29,11,41,11.40
2016,03,29,11,42,11.50
2016,03,29,11,43,11.60
2016,03,29,11,44,11.70
2016,03,29,11,45,11.70
2016,03,29,11,46,11.80
2016,03,29,11,47,11.80
2016,03,29,11,48,11.80
2016,03,29,11,49,11.90
2016,03,29,11,50,11.90
2016,03,29,11,51,11.90
2016,03,29,11,52,11.90
2016,03,29,11,53,11.90
2016,03,29,11,54,11.90
2016,03,29,11,55,11.90
2016,03,29,11,56,12.00
2016,03,29,11,57,12.00
2016,03,29,11,58,12.10
2016,03,29,11,59,12.10
2016,03,29,12,00,12.20
2016,03,29,12,01,12.20
2016,03,29,12,02,12.20
2016,03,29,12,03,12.30
2016,03,29,12,04,12.30
2016,03,29,12,05,12.30
2016,03,29,12,06,12.30
2016,03,29,12,07,12.40
2016,03,29,12,08,12.40
2016,03,29,12,09,12.40
2016,03,29,12,10,12.50
2016,03,29,12,11,12.50
2016,03,29,12,12,12.60
2016,03,29,12,13,12.60
2016,03,29,12,14,12.70
2016,03,29,12,15,12.70
2016,03,29,12,16,12.70
2016,03,29,12,17,12.70
2016,03,29,12,18,12.60
2016,03,29,12,19,12.60
2016,03,29,12,20,12.60
2016,03,29,12,21,12.70
2016,03,29,12,22,12.70
2016,03,29,12,23,12.70
2016,03,29,12,24,12.80
2016,03,29,12,25,12.80
2016,03,29,12,26,12.80
2016,03,29,12,27,12.90
2016,03,29,12,28,12.90
2016,03,29,12,29,13.00
2016,03,29,12,30,13.00
2016,03,29,12,31,13.10
2016,03,29,12,32,13.10
2016,03,29,12,33,13.20
2016,03,29,12,34,13.30
2016,03,29,12,35,13.30
2016,03,29,12,36,13.30
2016,03,29,12,37,13.40
2016,03,29,12,38,13.40
2016,03,29,12,39,13.50
2016,03,29,12,40,13.60
2016,03,29,12,41,13.60
2016,03,29,12,42,13.70
2016,03,29,12,43,13.70
2016,03,29,12,44,13.70
2016,03,29,12,45,13.80
2016,03,29,12,46,13.90
2016,03,29,12,47,14.00
2016,03,29,12,48,14.10
2016,03,29,12,49,14.20
2016,03,29,12,50,14.30
2016,03,29,12,51,14.40
2016,03,29,12,52,14.50
2016,03,29,12,53,14.60
2016,03,29,12,54,14.70
2016,03,29,12,55,14.80
2016,03,29,12,56,14.90
2016,03,29,12,57,14.90
2016,03,29,12,58,15.00
2016,03,29,12,59,15.10
2016,03,29,13,00,15.10
2016,03,29,13,01,15.10
2016,03,29,13,02,15.00
2016,03,29,13,03,15.00
2016,03,29,13,04,14.90
2016,03,29,13,05,14.80
2016,03,29,13,06,14.70
2016,03,29,13,07,14.70
2016,03,29,13,08,14.70
2016,03,29,13,09,14.70
2016,03,29,13,10,14.70
2016,03,29,13,11,14.70
2016,03,29,13,12,14.80
2016,03,29,13,13,14.80
2016,03,29,13,14,14.80
2016,03,29,13,15,14.90
2016,03,29,13,16,14.90
2016,03,29,13,17,15.00
2016,03,29,13,18,15.00
2016,03,29,13,19,15.10
2016,03,29,13,20,15.10
2016,03,29,13,21,15.10
2016,03,29,13,22,15.10
2016,03,29,13,23,15.10
2016,03,29,13,24,15.10
2016,03,29,13,25,15.10
2016,03,29,13,26,15.20
2016,03,29,13,27,15.20
2016,03,29,13,28,15.30
2016,03,29,13,29,15.40
2016,03,29,13,30,15.50
2016,03,29,13,31,15.60
2016,03,29,13,32,15.70
2016,03,29,13,33,15.80
2016,03,29,13,34,15.80
2016,03,29,13,35,15.90
2016,03,29,13,36,15.90
2016,03,29,13,37,15.90
2016,03,29,13,38,15.90
2016,03,29,13,39,16.00
2016,03,29,13,40,16.00
2016,03,29,13,41,16.10
2016,03,29,13,42,16.20
2016,03,29,13,43,16.30
2016,03,29,13,44,16.30
2016,03,29,13,45,16.30
2016,03,29,13,46,16.30
2016,03,29,13,47,16.30
2016,03,29,13,48,16.30
2016,03,29,13,49,16.30
2016,03,29,13,50,16.30
2016,03,29,13,51,16.40
2016,03,29,13,52,16.40
2016,03,29,13,53,16.40
2016,03,29,13,54,16.40
2016,03,29,13,55,16.50
2016,03,29,13,56,16.50
2016,03,29,13,57,16.60
2016,03,29,13,58,16.60
2016,03,29,13,59,16.60
2016,03,29,14,00,16.70
2016,03,29,14,01,16.70
2016,03,29,14,02,16.70
2016,03,29,14,03,16.70
2016,03,29,14,04,16.80
2016,03,29,14,05,16.80
2016,03,29,14,06,16.80
2016,03,29,14,07,16.80
2016,03,29,14,08,16.90
2016,03,29,14,09,17.00
2016,03,29,14,10,17.00
2016,03,29,14,11,17.10
2016,03,29,14,12,17.10
2016,03,29,14,13,17.10
2016,03,29,14,14,17.10
2016,03,29,14,15,17.10
2016,03,29,14,16,17.10
2016,03,29,14,17,17.10
2016,03,29,14,18,17.20
2016,03,29,14,19,17.20
2016,03,29,14,20,17.20
2016,03,29,14,21,17.30
2016,03,29,14,22,17.30
2016,03,29,14,23,17.30
2016,03,29,14,24,17.40
2016,03,29,14,25,17.40
2016,03,29,14,26,17.50
2016,03,29,14,27,17.50
2016,03,29,14,28,17.60
2016,03,29,14,29,17.60
2016,03,29,14,30,17.70
2016,03,29,14,31,17.70
2016,03,29,14,32,17.80
2016,03,29,14,33,17.90
2016,03,29,14,34,18.00
2016,03,29,14,35,18.10
2016,03,29,14,36,18.20
2016,03,29,14,37,18.20
2016,03,29,14,38,18.20
2016,03,29,14,39,18.20
2016,03,29,14,40,18.30
2016,03,29,14,41,18.40
2016,03,29,14,42,18.50
2016,03,29,14,43,18.60
2016,03,29,14,44,18.60
2016,03,29,14,45,18.60
2016,03,29,14,46,18.70
2016,03,29,14,47,18.80
2016,03,29,14,48,18.90
2016,03,29,14,49,19.00
2016,03,29,14,50,19.10
2016,03,29,14,51,19.20
2016,03,29,14,52,19.30
2016,03,29,14,53,19.30
2016,03,29,14,54,19.40
2016,03,29,14,55,19.40
2016,03,29,14,56,19.40
2016,03,29,14,57,19.40
2016,03,29,14,58,19.40
2016,03,29,14,59,19.30
2016,03,29,15,00,19.30
2016,03,29,15,01,19.30
2016,03,29,15,02,19.40
2016,03,29,15,03,19.40
2016,03,29,15,04,19.50
2016,03,29,15,05,19.50
2016,03,29,15,06,19.60
2016,03,29,15,07,19.60
2016,03,29,15,08,19.70
2016,03,29,15,09,19.70
2016,03,29,15,10,19.70
2016,03,29,15,11,19.70
2016,03,29,15,12,19.70
2016,03,29,15,13,19.80
2016,03,29,15,14,19.80
2016,03,29,15,15,19.90
2016,03,29,15,16,20.00
2016,03,29,15,17,20.10
2016,03,29,15,18,20.10
2016,03,29,15,19,20.10
2016,03,29,15,20,20.10
2016,03,29,15,21,20.10
2016,03,29,15,22,20.10
2016,03,29,15,23,20.10
2016,03,29,15,24,20.10
2016,03,29,15,25,20.10
2016,03,29,15,26,20.10
2016,03,29,15,27,20.10
2016,03,29,15,28,20.10
2016,03,29,15,29,20.10
2016,03,29,15,30,20.20
2016,03,29,15,31,20.20
2016,03,29,15,32,20.20
2016,03,29,15,33,20.20
2016,03,29,15,34,20.20
2016,03,29,15,35,20.10
2016,03,29,15,36,20.10
2016,03,29,15,37,20.10
2016,03,29,15,38,20.10
2016,03,29,15,39,20.20
2016,03,29,15,40,20.40
2016,03,29,15,41,20.50
2016,03,29,15,42,20.60
2016,03,29,15,43,20.70
2016,03,29,15,44,20.80
2016,03,29,15,45,20.90
2016,03,29,15,46,20.90
2016,03,29,15,47,20.90
2016,03,29,15,48,21.00
2016,03,29,15,49,21.00
2016,03,29,15,50,21.10
2016,03,29,15,51,21.20
2016,03,29,15,52,21.30
2016,03,29,15,53,21.30
2016,03,29,15,54,21.40
2016,03,29,15,55,21.50
2016,03,29,15,56,21.60
2016,03,29,15,57,21.70
2016,03,29,15,58,21.80
2016,03,29,15,59,21.80
2016,03,29,16,00,22.00
2016,03,29,16,01,22.00
2016,03,29,16,02,22.10
2016,03,29,16,03,22.20
2016,03,29,16,04,22.20
2016,03,29,16,05,22.10
2016,03,29,16,06,22.00
2016,03,29,16,07,21.90
2016,03,29,16,08,21.80
2016,03,29,16,09,21.70
2016,03,29,16,10,21.60
2016,03,29,16,11,21.60
2016,03,29,16,12,21.50
2016,03,29,16,13,21.40
2016,03,29,16,14,21.40
2016,03,29,16,15,21.40
2016,03,29,16,16,21.30
2016,03,29,16,17,21.30
2016,03,29,16,18,21.30
2016,03,29,16,19,21.40
2016,03,29,16,20,21.40
2016,03,29,16,21,21.40
2016,03,29,16,22,21.40
2016,03,29,16,23,21.50
2016,03,29,16,24,21.50
2016,03,29,16,25,21.60
2016,03,29,16,26,21.70
2016,03,29,16,27,21.80
2016,03,29,16,28,21.90
2016,03,29,16,29,22.00
2016,03,29,16,30,22.10
2016,03,29,16,31,22.30
2016,03,29,16,32,22.40
2016,03,29,16,33,22.60
2016,03,29,16,34,22.70
2016,03,29,16,35,22.80
2016,03,29,16,36,22.80
2016,03,29,16,37,22.90
2016,03,29,16,38,22.80
2016,03,29,16,39,22.70
2016,03,29,16,40,22.60
2016,03,29,16,41,22.40
2016,03,29,16,42,22.30
2016,03,29,16,43,22.10
2016,03,29,16,44,22.00
2016,03,29,16,45,21.90
2016,03,29,16,46,21.80
2016,03,29,16,47,21.80
2016,03,29,16,48,21.70
2016,03,29,16,49,21.70
2016,03,29,16,50,21.70
2016,03,29,16,51,21.60
2016,03,29,16,52,21.60
2016,03,29,16,53,21.60
2016,03,29,16,54,21.50
2016,03,29,16,55,21.50
2016,03,29,16,56,21.50
2016,03,29,16,57,21.50
2016,03,29,16,58,21.50
2016,03,29,16,59,21.50
2016,03,29,17,00,21.50
2016,03,29,17,01,21.50
2016,03,29,17,02,21.60
2016,03,29,17,03,21.60
2016,03,29,17,04,21.60
2016,03,29,17,05,21.60
2016,03,29,17,06,21.50
2016,03,29,17,07,21.50
2016,03,29,17,08,21.40
2016,03,29,17,09,21.40
2016,03,29,17,10,21.30
2016,03,29,17,11,21.30
2016,03,29,17,12,21.30
2016,03,29,17,13,21.20
2016,03,29,17,14,21.20
2016,03,29,17,15,21.20
2016,03,29,17,16,21.20
2016,03,29,17,17,21.10
2016,03,29,17,18,21.10
2016,03,29,17,19,21.10
2016,03,29,17,20,21.00
2016,03,29,17,21,21.00
2016,03,29,17,22,20.90
2016,03,29,17,23,20.90
2016,03,29,17,24,20.90
2016,03,29,17,25,20.80
2016,03,29,17,26,20.80
2016,03,29,17,27,20.80
2016,03,29,17,28,20.70
2016,03,29,17,29,20.70
2016,03,29,17,30,20.70
2016,03,29,17,31,20.70
2016,03,29,17,32,20.70
2016,03,29,17,33,20.70
2016,03,29,17,34,20.70
2016,03,29,17,35,20.70
2016,03,29,17,36,20.70
2016,03,29,17,37,20.70
2016,03,29,17,38,20.60
2016,03,29,17,39,20.60
2016,03,29,17,40,20.60
2016,03,29,17,41,20.50
2016,03,29,17,42,20.50